FW9528 Weather Reports


time (UTC)temp
F
wind
direction
speed
knots
gust
knots
rain 1hr
in
rain 24hr
in
rain mn
in
humidity
%
barometer
mb
20260509023046 55 240 7.0 13.0 0.00 0.08 0.08 88 1009.2
20260509021548 55 268 5.2 11.3 0.00 0.08 0.08 88 1009.3
20260509020053 55 258 5.2 11.3 0.00 0.08 0.08 88 1009.2
20260509014550 55 225 3.5 7.8 0.00 0.08 0.08 88 1009.1
20260509013054 55 215 2.6 9.6 0.01 0.08 0.08 89 1009.1
20260509011549 54 256 3.5 7.0 0.01 0.08 0.08 89 1009.1
20260509010053 54 232 4.3 7.8 0.01 0.08 0.08 89 1009.1
20260509004546 54 238 2.6 7.8 0.01 0.08 0.08 89 1009.2
20260509003044 54 245 4.3 7.0 0.01 0.07 0.07 89 1009.3
20260509001549 54 243 4.3 7.8 0.01 0.07 0.07 89 1009.3
20260509000049 55 224 2.6 6.1 0.01 0.07 0.07 90 1009.4
20260508234547 55 235 4.3 7.8 0.01 0.07 0.07 89 1009.5
20260508233047 55 234 4.3 7.0 0.01 0.06 0.06 89 1009.6
20260508231546 55 238 2.6 5.2 0.03 0.06 0.06 89 1009.6
20260508230047 55 186 0.9 2.6 0.04 0.06 0.06 89 1009.4
20260508224544 55 188 0.9 5.2 0.05 0.06 0.06 88 1009.5
20260508223047 55 299 1.7 6.1 0.05 0.05 0.05 87 1009.9
20260508221547 56 302 4.3 10.4 0.03 0.03 0.03 85 1010.1
20260508220041 56 333 4.3 7.8 0.02 0.02 0.02 83 1009.8
20260508214537 57 328 4.3 7.8 0.01 0.01 0.01 80 1009.6
20260508213044 58 333 5.2 10.4 0.00 0.00 0.00 77 1009.4
20260508211552 59 346 4.3 7.0 0.00 0.00 0.00 72 1009.2
20260508210040 59 348 2.6 7.0 0.00 0.00 0.00 73 1009.5
20260508204540 60 294 3.5 10.4 0.00 0.00 0.00 69 1009.6
20260508203046 62 291 3.5 7.8 0.00 0.00 0.00 64 1009.8
20260508201545 63 252 5.2 11.3 0.00 0.00 0.00 62 1010.1
20260508200100 63 252 4.3 9.6 0.00 0.00 0.00 60 1010.2
20260508194542 62 251 6.1 13.0 0.00 0.00 0.00 59 1010.3
20260508193122 63 258 8.7 15.6 0.00 0.00 0.00 58 1010.4
20260508191550 63 262 9.6 18.2 0.00 0.00 0.00 58 1010.6
20260508190043 63 254 13.0 22.6 0.00 0.00 0.00 56 1010.7
20260508184554 64 258 12.2 19.1 0.00 0.00 0.00 55 1010.7
20260508183109 64 260 10.4 20.9 0.00 0.00 0.00 55 1010.7
20260508181603 65 264 11.3 19.1 0.00 0.00 0.00 56 1010.7
20260508180049 65 251 12.2 20.0 0.00 0.00 0.00 54 1010.7
20260508174551 65 227 9.6 15.6 0.00 0.00 0.00 58 1010.8
20260508173047 65 276 7.8 15.6 0.00 0.00 0.00 56 1011.2
20260508171543 64 261 10.4 17.4 0.00 0.00 0.00 56 1011.4
20260508170053 63 273 8.7 16.5 0.00 0.00 0.00 59 1011.6
20260508164546 62 203 8.7 16.5 0.00 0.00 0.00 58 1011.9
20260508163037 62 252 7.0 15.6 0.00 0.00 0.00 59 1012.2
20260508161546 63 241 10.4 14.8 0.00 0.00 0.00 57 1012.3
20260508160043 62 237 8.7 13.9 0.00 0.00 0.00 59 1012.5
20260508154603 61 248 7.8 13.0 0.00 0.00 0.00 60 1012.8
20260508153041 60 288 7.8 13.9 0.00 0.00 0.00 60 1012.8
20260508151540 60 244 7.8 14.8 0.00 0.00 0.00 60 1012.8
20260508150040 60 256 7.8 15.6 0.00 0.00 0.00 60 1012.8
20260508144600 59 215 7.0 13.9 0.00 0.00 0.00 62 1013.0
20260508143042 58 242 7.8 13.9 0.00 0.00 0.00 61 1013.3
20260508141543 57 259 8.7 12.2 0.00 0.00 0.00 62 1013.4
20260508140042 56 251 7.0 10.4 0.00 0.00 0.00 63 1013.6
20260508134555 55 231 7.0 12.2 0.00 0.00 0.00 63 1013.6
20260508133049 54 225 4.3 10.4 0.00 0.00 0.00 64 1013.6
20260508131549 54 223 5.2 9.6 0.00 0.00 0.00 65 1013.6
20260508130042 52 222 4.3 7.8 0.00 0.00 0.00 68 1013.5
20260508124548 50 0 1.7 4.3 0.00 0.00 0.00 72 1013.5
20260508123051 50 197 2.6 4.3 0.00 0.00 0.00 72 1013.7
20260508121538 50 215 0.9 4.3 0.00 0.00 0.00 72 1013.6
20260508120043 50 198 1.7 3.5 0.00 0.00 0.00 72 1013.5
20260508114551 50 222 2.6 7.0 0.00 0.00 0.00 70 1013.3
20260508113040 50 237 2.6 6.1 0.00 0.00 0.00 69 1013.4
20260508111553 49 241 3.5 6.1 0.00 0.00 0.00 69 1013.3
20260508110049 49 221 2.6 6.1 0.00 0.00 0.00 71 1013.0
20260508104548 48 5 1.7 3.5 0.00 0.00 0.00 74 1013.2
20260508103043 48 0 0.0 2.6 0.00 0.00 0.00 72 1012.9
20260508101542 48 13 1.7 4.3 0.00 0.00 0.00 73 1012.9
20260508100048 49 295 1.7 5.2 0.00 0.00 0.00 71 1012.7
20260508094541 49 215 2.6 5.2 0.00 0.00 0.00 70 1012.6
20260508093046 49 238 2.6 7.0 0.00 0.00 0.00 69 1012.8
20260508091546 50 239 2.6 7.0 0.00 0.00 0.00 68 1012.8
20260508090106 50 249 4.3 9.6 0.00 0.00 0.00 67 1012.8
20260508084548 51 274 6.1 12.2 0.00 0.00 0.00 66 1012.9
20260508083048 51 243 3.5 10.4 0.00 0.00 0.00 65 1013.0
20260508081556 51 281 4.3 8.7 0.00 0.00 0.00 65 1013.1
20260508080040 51 239 5.2 8.7 0.00 0.00 0.00 65 1013.2
20260508074548 50 259 2.6 7.0 0.00 0.00 0.00 66 1013.1
20260508073102 51 242 3.5 8.7 0.00 0.00 0.00 65 1013.1
20260508071548 51 273 5.2 11.3 0.00 0.00 0.00 65 1013.0
20260508070052 51 248 6.1 13.9 0.00 0.00 0.00 64 1013.1
20260508064557 51 261 5.2 10.4 0.00 0.00 0.00 65 1013.3
20260508063051 50 219 5.2 9.6 0.00 0.00 0.00 66 1013.3
20260508061545 50 229 4.3 10.4 0.00 0.00 0.00 66 1013.3
20260508054547 50 252 4.3 8.7 0.00 0.00 0.00 65 1013.4
20260508053047 50 226 3.5 7.8 0.00 0.00 0.00 66 1013.4
20260508051620 51 232 4.3 7.8 0.00 0.00 0.00 67 1013.5
20260508050050 51 245 4.3 9.6 0.00 0.00 0.00 68 1013.5
20260508044550 50 246 3.5 7.8 0.00 0.00 0.00 70 1013.5
20260508043049 49 231 2.6 7.0 0.00 0.00 0.00 72 1013.5
20260508041546 49 235 2.6 7.0 0.00 0.00 0.00 74 1013.5
20260508040052 49 230 3.5 7.0 0.00 0.00 0.00 75 1013.5
20260508034551 48 205 2.6 6.1 0.00 0.00 0.00 77 1013.4
20260508033057 48 209 0.9 2.6 0.00 0.00 0.00 77 1013.4
20260508031556 48 193 1.7 6.1 0.00 0.00 0.00 77 1013.4
20260508030059 47 207 1.7 3.5 0.00 0.00 0.00 78 1013.4
20260508024613 47 0 0.9 2.6 0.00 0.00 0.00 78 1013.5